Regional Weather Roundup
Issued by NWS

Home | Current Version | Previous Version | Graphics & Text | Print | Product List | Glossary On
Versions: 1 2 3 4 5 6 7 8 9 10 11 12 13 14 15 16 17 18 19 20 21 22 23 24 25 26 27 28
000
ASUS45 KCYS 270010
RWRWY

WYOMING REGIONAL WEATHER ROUNDUP
NATIONAL WEATHER SERVICE CHEYENNE WY
500 PM MST SUN FEB 26 2017

NOTE:  "FAIR" INDICATES FEW OR NO CLOUDS BELOW 12,000 FEET
WITH NO SIGNIFICANT WEATHER AND/OR OBSTRUCTIONS TO VISIBILITY.

WYZ001-270100-
YELLOWSTONE NATIONAL PARK

CITY           SKY/WX    TMP DP  RH WIND       PRES   REMARKS
LK YELLOWSTONE   N/A     13   5  70 VRB5      29.63S WCI   5
6HR MIN TEMP:  13; 6HR MAX TEMP:  18; 6HR PCP:  0.01;

W YELLOWSTONE  NOT AVBL

$$
WYZ002>013-054>058-071-098>099-270100-
NORTHERN WYOMING

CITY           SKY/WX    TMP DP  RH WIND       PRES   REMARKS
JACKSON        PTSUNNY   19  12  73 S18       29.69S WCI   4
CODY           MOCLDY    29   8  41 S17       29.63F WCI  17
GREYBULL       FAIR      31   8  38 SE7       29.69F WCI  24
6HR MIN TEMP:  28; 6HR MAX TEMP:  32;

WORLAND        FAIR      31  10  41 S6        29.69S WCI  25
6HR MIN TEMP:  25; 6HR MAX TEMP:  33;

SHERIDAN       FAIR      31  15  52 SE12      29.68F WCI  22
6HR MIN TEMP:  31; 6HR MAX TEMP:  36;

BUFFALO        FAIR      25   8  48 S7        29.68F WCI  17
6HR MIN TEMP:  25; 6HR MAX TEMP:  29;

GILLETTE       FAIR      30   9  41 S12       29.70S WCI  20
6HR MIN TEMP:  29; 6HR MAX TEMP:  33;

HULETT         CLOUDY    32   9  37 CALM      29.72S
NEWCASTLE      FAIR      23  12  63 SE6       29.77F WCI  16

$$
WYZ014>020-022>026-101>103-270100-
CENTRAL WYOMING

CITY           SKY/WX    TMP DP  RH WIND       PRES   REMARKS
BIG PINEY      FAIR      10   3  73 NE6       29.73S WCI   0
6HR MIN TEMP:   0; 6HR MAX TEMP:  13;

PINEDALE       FAIR      12   1  62 E5        29.73F WCI   4
DUBOIS         FAIR      18   1  49 W15G26    29.62R WCI   3
LANDER         FAIR      21   6  52 SW3       29.65F
6HR MIN TEMP:  15; 6HR MAX TEMP:  24;

RIVERTON       FAIR      22   4  46 S5        29.67F WCI  16
6HR MIN TEMP:  19; 6HR MAX TEMP:  24;

CASPER         FAIR      23   9  55 SW22G37   29.70F WCI   8
6HR MIN TEMP:  19; 6HR MAX TEMP:  24; 6HR PCP: TRACE;

DOUGLAS        FAIR      23  12  62 SW7       29.74F WCI  15
6HR MIN TEMP:  21; 6HR MAX TEMP:  26;


$$
WYZ021-027>030-104>119-270100-
SOUTHERN WYOMING

CITY           SKY/WX    TMP DP  RH WIND       PRES   REMARKS
EVANSTON       FAIR      21   7  54 SW17      29.70F WCI   7
6HR MIN TEMP:  13; 6HR MAX TEMP:  23;

KEMMERER         N/A     21   9  58 CALM      29.71F
FORT BRIDGER   FAIR      22  10  62 SE6       29.75S WCI  14
ROCK SPRINGS   FAIR      20   5  52 SW6       29.75F WCI  12
6HR MIN TEMP:  16; 6HR MAX TEMP:  21;

DIXON            N/A     27   4  38 W7        29.81S WCI  19
RAWLINS        NOT AVBL
SARATOGA       FAIR      23   3  42 SW12      29.74F WCI  12
LARAMIE        FAIR      23   3  42 SW18      29.70R WCI   9
6HR MIN TEMP:  20; 6HR MAX TEMP:  24;

CHEYENNE       FAIR      27  10  49 S6        29.74S WCI  20
6HR MIN TEMP:  23; 6HR MAX TEMP:  28;

TORRINGTON     FAIR      26  11  52 SW10      29.79R WCI  16
6HR MIN TEMP:  22; 6HR MAX TEMP:  31;

PINE BLUFFS    FAIR      32   5  32 SW5       29.78S WCI  27

$$




USA.gov is the U.S. government's official web portal to all federal, state and local government web resources and services.